DW9615 Home Hill AU current weather conditions

sailwx.info

Wind from 107 at 2 knots gusting 7

Air temperature 21.7° C
Dewpoint 13.6° C

Last reported at 2014-Aug-31 07:44 UTC.
Time now 2014-Aug-31 08:40 UTC

Location: S 19°40' E 147°25'.
View on Google Maps.

See reports from other nearby stations

  
Tides and Currents Weather Stations Pressure Air Temp Water Temp Dewpoint Dewpoint Depression Visibility Wind Speed Wind Dir Waves Ship Positions
date/time (UTC)wind fromknots sea level pressurealtimeterstation pressurevisibilityair tempwater tempwave heightnotes
2014-Aug-31 07:44 107 2 gusting 7 21.7
2014-Aug-31 07:29 083 3 gusting 7 22.2
2014-Aug-31 07:14 071 6 gusting 11 22.2
2014-Aug-31 06:58 069 5 gusting 10 22.8
2014-Aug-31 06:43 066 6 gusting 12 22.8
2014-Aug-31 06:28 101 5 gusting 11 23.3
2014-Aug-31 06:13 086 6 gusting 13 23.3
2014-Aug-31 05:58 097 5 gusting 13 23.9
2014-Aug-31 05:43 066 6 gusting 12 23.9
2014-Aug-31 05:28 084 6 gusting 17 23.9
2014-Aug-31 05:13 047 5 gusting 12 24.4
2014-Aug-31 04:58 107 5 gusting 9 25.6
2014-Aug-31 04:43 059 5 gusting 11 25.6
2014-Aug-31 04:28 109 3 gusting 10 25.6
2014-Aug-31 04:13 094 4 gusting 9 25.6
2014-Aug-31 03:58 083 4 gusting 11 25.6
2014-Aug-31 03:43 098 4 gusting 9 25.6
2014-Aug-31 03:28 111 3 gusting 7 25.6
2014-Aug-31 03:13 084 5 gusting 10 25.0
2014-Aug-31 02:58 101 5 gusting 11 25.0
2014-Aug-31 02:43 076 3 gusting 7 25.0
2014-Aug-31 02:28 090 3 gusting 7 25.6
2014-Aug-31 02:13 144 2 gusting 9 25.0
2014-Aug-31 01:58 131 3 gusting 11 25.0
2014-Aug-31 01:43 105 5 gusting 11 25.0
2014-Aug-31 01:28 132 6 gusting 13 24.4
2014-Aug-31 01:13 095 3 gusting 10 24.4
2014-Aug-31 00:58 169 1 gusting 9 24.4
2014-Aug-31 00:43 057 4 gusting 7 23.9
2014-Aug-31 00:28 091 2 gusting 6 23.9
2014-Aug-31 00:13 117 2 gusting 5 23.3
2014-Aug-30 23:58 117 0 gusting 6 22.8
2014-Aug-30 23:43 112 0 gusting 6 22.8
2014-Aug-30 23:27 344 22.2
2014-Aug-30 23:12 170 1 gusting 4 22.2
2014-Aug-30 22:57 082 0 gusting 3 21.7
2014-Aug-30 22:42 134 0 gusting 3 20.0
2014-Aug-30 22:27 190 0 gusting 3 18.9
2014-Aug-30 22:12 140 0 gusting 3 17.8
2014-Aug-30 21:57 162 0 gusting 1 16.7
2014-Aug-30 21:42 190 15.6
2014-Aug-30 21:27 190 14.4
2014-Aug-30 21:12 275 13.3
2014-Aug-30 20:57 275 12.8
2014-Aug-30 20:42 276 11.7
2014-Aug-30 20:27 275 11.7
2014-Aug-30 20:12 275 12.2
2014-Aug-30 19:57 275 12.2
2014-Aug-30 19:42 276 12.2
2014-Aug-30 19:27 275 12.2
2014-Aug-30 19:12 275 12.2
2014-Aug-30 18:57 275 12.2
2014-Aug-30 18:42 275 12.2
2014-Aug-30 18:27 275 12.8
2014-Aug-30 18:12 274 12.8
2014-Aug-30 17:57 274 12.8
2014-Aug-30 17:41 274 12.8
2014-Aug-30 17:26 264 12.8
2014-Aug-30 17:11 264 12.8
2014-Aug-30 16:56 264 12.8
2014-Aug-30 16:41 063 12.8
2014-Aug-30 16:26 066 12.8
2014-Aug-30 16:11 066 12.8
2014-Aug-30 15:56 065 12.8
2014-Aug-30 15:41 066 13.3
2014-Aug-30 15:26 066 13.3
2014-Aug-30 15:11 066 13.3
2014-Aug-30 14:56 066 13.3
2014-Aug-30 14:41 066 13.3
2014-Aug-30 14:26 066 13.3
2014-Aug-30 14:11 066 13.3
2014-Aug-30 13:56 066 13.9
2014-Aug-30 13:41 065 13.9
2014-Aug-30 13:26 066 13.9
2014-Aug-30 13:11 066 14.4
2014-Aug-30 12:56 067 14.4
2014-Aug-30 12:41 066 15.0
2014-Aug-30 12:26 066 15.0
2014-Aug-30 12:11 066 15.0
2014-Aug-30 11:56 066 15.6
2014-Aug-30 11:41 065 15.6
2014-Aug-30 11:26 066 15.6
2014-Aug-30 11:11 066 16.1
2014-Aug-30 10:56 066 17.2
2014-Aug-30 10:41 066 17.8
2014-Aug-30 10:26 066 18.9
2014-Aug-30 10:11 069 18.9
2014-Aug-30 09:56 078 18.9
2014-Aug-30 09:41 049 19.4
2014-Aug-30 09:26 080 0 gusting 2 19.4
2014-Aug-30 09:11 097 1 gusting 2 19.4
2014-Aug-30 08:56 081 0 gusting 3 20.0
2014-Aug-30 08:41 072 0 gusting 2 20.0
2014-Aug-30 08:26 072 1 gusting 4 20.6
2014-Aug-30 08:11 079 0 gusting 4 20.6
2014-Aug-30 07:56 170 3 gusting 6 21.1
2014-Aug-30 07:41 064 3 gusting 6 21.7
2014-Aug-30 07:27 104 4 gusting 10 22.2
2014-Aug-30 07:11 111 4 gusting 13 22.8
2014-Aug-30 06:56 047 3 gusting 12 22.8
2014-Aug-30 06:41 076 5 gusting 13 23.3
2014-Aug-30 06:26 109 4 gusting 12 23.3
2014-Aug-30 06:11 082 4 gusting 10 23.9
2014-Aug-30 05:56 101 4 gusting 8 24.4
2014-Aug-30 05:41 101 6 gusting 12 24.4
2014-Aug-30 05:26 069 6 gusting 13 24.4
2014-Aug-30 05:11 074 6 gusting 10 24.4
2014-Aug-30 04:56 110 7 gusting 12 24.4
2014-Aug-30 04:41 057 6 gusting 13 24.4
2014-Aug-30 04:26 095 6 gusting 10 25.0
2014-Aug-30 04:11 038 6 gusting 12 25.0
2014-Aug-30 03:56 097 6 gusting 10 25.0
2014-Aug-30 03:41 038 5 gusting 13 24.4
2014-Aug-30 03:25 088 5 gusting 12 24.4
2014-Aug-30 03:10 069 6 gusting 12 25.0
2014-Aug-30 02:55 102 6 gusting 11 25.0
2014-Aug-30 02:40 074 5 gusting 11 24.4
2014-Aug-30 02:25 039 6 gusting 12 24.4
2014-Aug-30 02:10 119 5 gusting 10 24.4
2014-Aug-30 01:55 122 4 gusting 15 24.4
2014-Aug-30 01:40 090 6 gusting 13 25.0
2014-Aug-30 01:26 093 9 gusting 13 25.0
2014-Aug-30 01:10 136 5 gusting 11 25.0
2014-Aug-30 00:55 132 4 gusting 11 24.4
2014-Aug-30 00:40 136 4 gusting 8 25.0
2014-Aug-30 00:25 125 3 gusting 11 24.4
2014-Aug-30 00:10 152 3 gusting 10 23.9
2014-Aug-29 23:55 132 2 gusting 8 23.3
2014-Aug-29 23:40 114 3 gusting 8 22.8
2014-Aug-29 23:25 122 2 gusting 8 21.7
2014-Aug-29 23:10 097 3 gusting 9 20.6
2014-Aug-29 22:55 154 3 gusting 6 20.0
2014-Aug-29 22:40 131 1 gusting 5 19.4
2014-Aug-29 22:25 140 17.2
2014-Aug-29 22:09 216 15.6
2014-Aug-29 21:54 183 14.4
2014-Aug-29 21:39 165 13.9
2014-Aug-29 21:24 188 0 gusting 2 13.9
2014-Aug-29 21:09 170 13.3
2014-Aug-29 20:54 245 12.8
2014-Aug-29 20:39 284 12.2
2014-Aug-29 20:24 261 12.2
2014-Aug-29 20:09 272 12.2
2014-Aug-29 19:54 292 12.2
2014-Aug-29 19:39 293 12.2
2014-Aug-29 19:24 293 12.2
2014-Aug-29 19:09 260 12.2
2014-Aug-29 18:54 230 12.2
2014-Aug-29 18:39 170 12.2
2014-Aug-29 18:24 226 12.8
2014-Aug-29 18:09 183 13.3
2014-Aug-29 17:54 169 13.3
2014-Aug-29 17:39 168 13.9
2014-Aug-29 17:24 180 13.3
2014-Aug-29 17:09 223 12.8
2014-Aug-29 16:54 222 12.8
2014-Aug-29 16:39 223 13.3
2014-Aug-29 16:24 222 13.3
2014-Aug-29 16:09 223 13.9
2014-Aug-29 15:54 223 13.9
2014-Aug-29 15:39 222 13.9
2014-Aug-29 15:24 222 14.4
2014-Aug-29 15:09 223 14.4
2014-Aug-29 14:54 209 15.0
2014-Aug-29 14:39 150 15.6
2014-Aug-29 14:23 140 16.1
2014-Aug-29 14:08 104 16.1
2014-Aug-29 13:53 142 16.7
2014-Aug-29 13:38 147 17.2
2014-Aug-29 13:23 170 17.2
2014-Aug-29 13:08 164 17.2
2014-Aug-29 12:53 071 17.8
2014-Aug-29 12:38 070 17.8
2014-Aug-29 12:23 066 17.8
2014-Aug-29 12:08 067 17.8
2014-Aug-29 11:53 076 18.3
2014-Aug-29 11:38 106 0 gusting 2 18.3
2014-Aug-29 11:23 100 0 gusting 2 18.3
2014-Aug-29 11:08 102 18.9
2014-Aug-29 10:53 157 1 gusting 5 18.9
2014-Aug-29 10:38 100 0 gusting 5 18.9
2014-Aug-29 10:23 142 18.3
2014-Aug-29 10:08 117 18.9
2014-Aug-29 09:53 098 0 gusting 4 18.9
2014-Aug-29 09:38 093 1 gusting 4 19.4
2014-Aug-29 09:23 075 1 gusting 4 20.0
2014-Aug-29 09:08 107 1 gusting 6 20.0
2014-Aug-29 08:53 124 3 gusting 8 20.6
2014-Aug-29 08:38 117 3 gusting 8 20.6
2014-Aug-29 08:23 114 5 gusting 9 21.1
2014-Aug-29 08:08 129 4 gusting 12 21.1